Regional Weather Roundup
Issued by NWS

Home | Current Version | Previous Version | Text Only | Print | Product List | Glossary On
Versions: 1 2 3 4 5 6 7 8 9 10 11 12 13 14 15 16 17 18 19 20 21 22 23 24 25 26 27 28 29 30 31 32 33 34 35 36 37 38 39 40 41 42 43 44 45 46 47 48 49 50
000
ASUS44 KFWD 301915
RWRTX
NORTH TEXAS HOURLY WEATHER ROUNDUP
NATIONAL WEATHER SERVICE FORT WORTH TX
200 PM CDT THU JUL 30 2015

NOTE: "FAIR" INDICATES FEW OR NO CLOUDS BELOW 12,000 FEET WITH NO
SIGNIFICANT WEATHER AND/OR OBSTRUCTIONS TO VISIBILITY.

TXZ118-119-302000-
DALLAS/FORT WORTH METROPLEX

CITY           SKY/WX    TMP DP  RH WIND       PRES   REMARKS
DFW AIRPORT    MOSUNNY   99  63  30 CALM      30.07F HX 101
DALLAS LOVE    MOSUNNY  101  63  28 CALM      30.06F HX 103
FTW MEACHAM    SUNNY    100  63  29 CALM      30.07F HX 102
DAL-EXECUTIVE  SUNNY    101  60  25 E12       30.07F HX 101
FTW-ALLIANCE   MOSUNNY   98  64  32 VRB3      30.07F HX 100
FTW-NAS-JRB    MOSUNNY  101  64  29 VRB6      30.07F HX 104
FTW-SPINKS     PTSUNNY  100  61  27 E6        30.09F HX 101
ARLINGTON      MOSUNNY  101  60  25 E5        30.07F HX 101
GRAND PRAIRIE  SUNNY     99  64  32 SW5       30.08F HX 101
ADDISON        MOSUNNY   99  63  30 SW7       30.08F HX 100
MESQUITE       SUNNY     99  61  28 NW3       30.07F HX  99
LANCASTER      SUNNY     99  57  24 CALM      30.08F HX  98
$$

TXZ091>094-102>105-117-120-121-131>134-302000-
NORTH CENTRAL TEXAS

CITY           SKY/WX    TMP DP  RH WIND       PRES   REMARKS
SHRMAN/DENISON MOSUNNY   98  69  38 E5        30.10F HX 104
GAINESVILLE    PTSUNNY   99  66  33 CALM      30.10F HX 102
BOWIE          MOSUNNY   95  63  33 CALM      30.10F HX  96
DECATUR        MOSUNNY   95  62  33 NE3       30.10F HX  95
DENTON         MOSUNNY  100  65  31 MISG      30.07F HX 103
MCKINNEY       SUNNY     99  64  31 E3        30.07F HX 101
GREENVILLE     SUNNY    100  59  25 NE5       30.08F HX 100
ROCKWALL       SUNNY     99  66  34 NW7       30.06F HX 102
TERRELL        MOSUNNY  100  65  31 E8        30.07F HX 103
WAXAHACHIE     SUNNY     99  65  32 SE3       30.09F HX 102
CLEBURNE       MOSUNNY   99  61  28 CALM      30.10F HX  99
GRANBURY       SUNNY    100  59  25 SE7       30.09F HX 100
$$

TXZ083>090-098>101-113>116-127>130-139>142-154-155-302000-
WESTERN NORTH TEXAS

CITY           SKY/WX    TMP DP  RH WIND       PRES   REMARKS
WICHITA FALLS  MOSUNNY   98  65  33 VRB5      30.09F HX 101
WF-KICKAPOO    SUNNY     99  60  27 E6        30.09F HX  99
VERNON         MOSUNNY  100  52  20 N15G26    30.12S HX  97
ABILENE        MOSUNNY   97  61  30 VRB3      30.14F HX  97
ABILENE-DYESS  MOSUNNY   98  64  32 SE8       30.12F HX  99
BRECKENRIDGE   MOSUNNY   97  60  29 CALM      30.11F HX  97
GRAHAM         MOSUNNY   95  66  37 CALM      30.09F HX  98
MINERAL WELLS  MOSUNNY   97  66  36 VRB6      30.08F HX 100
STEPHENVILLE   SUNNY     97  61  30 CALM      30.14F HX  97
COMANCHE       MOSUNNY   93  64  38 E3        30.13S HX  95
BROWNWOOD      PTSUNNY   93  64  38 N3        30.13S HX  95
COLEMAN        MOSUNNY   95  65  36 SE6       30.15S HX  97
BRADY          MOSUNNY   97  63  32 E5        30.14F HX  98
$$

TXZ143>147-156>162-174-175-302000-
CENTRAL TEXAS

CITY           SKY/WX    TMP DP  RH WIND       PRES   REMARKS
WACO           MOSUNNY   99  63  30 CALM      30.07F HX 101
WACO-TSTC      MOSUNNY  100  61  27 CALM      30.06F HX 101
HILLSBORO      MOSUNNY   99  62  29 NE6       30.08F HX 100
CORSICANA      MOSUNNY  101  66  31 VRB5      30.07F HX 105
MEXIA          MOSUNNY   99  67  34 E7G22     30.06F HX 103
HEARNE         MOSUNNY   98  66  35 E5        30.06F HX 102
CAMERON        SUNNY     99  65  31 SE6       30.06F HX 102
TEMPLE         SUNNY    100  63  28 S7        30.07F HX 102
KILLEEN        MOSUNNY   97  61  31 NE5       30.08F HX  97
KILLEEN-SKYLRK MOSUNNY   97  64  34 E3        30.08F HX  99
FORT HOOD      MOSUNNY   98  63  31 SE9       30.07F HX 100
GATESVILLE     SUNNY    100  63  28 CALM      30.11S HX 102
HAMILTON       MOSUNNY   98  59  26 E5        30.13S HX  98
LAMPASAS       MOSUNNY   97  63  32 S5        30.10F HX  98
$$

TXZ095>097-106>112-122>126-135>138-148>153-164>167-302000-
EAST TEXAS

CITY           SKY/WX    TMP DP  RH WIND       PRES   REMARKS
PARIS          SUNNY     99  66  34 S6        30.07F HX 102
SULPHUR SPRNGS SUNNY    100  63  29 N6        30.09F HX 102
MOUNT PLEASANT SUNNY    100  61  27 NE3       30.07F HX 101
GILMER         SUNNY     98  66  35 CALM      30.06F HX 101
MINEOLA        MOSUNNY  100  61  27 CALM      30.08F HX 101
TYLER          MOSUNNY  102  65  29 MISG      30.06F HX 105
LONGVIEW       MOSUNNY  102  70  35 N6        30.04F HX 110
MARSHALL       PTSUNNY  101  69  34 N6        30.06F HX 108
ATHENS         MOSUNNY   97  64  34 NW3       30.05F HX  99
PALESTINE      MOSUNNY   99  66  34 N7        30.07F HX 102
JACKSONVILLE   MOSUNNY  100  62  28 N3        30.09F HX 101
HENDERSON      MOSUNNY   96  67  37 N7        30.07F HX 100
CENTER         FAIR     101  69  35 E7        30.03F HX 107
NACOGDOCHES    MOSUNNY   99  68  36 N6        30.03F HX 104
LUFKIN         MOSUNNY  100  70  37 NE9       30.03F HX 107
$$

SUPPLEMENTAL OBSERVATIONS (CENTRAL)

CITY           SKY/WX    TMP DP  RH WIND       PRES   REMARKS
LAKE TEXOMA      N/A     93  66  40 NW5         N/A  HX  96
CADDO GRASSLND   N/A    100  63  28 SW5         N/A  HX 102
PAT MAYSE LAKE   N/A     95  68  41 S9          N/A  HX  99
GREENVILLE       N/A     97  63  32 E6          N/A  HX  98
CEDAR HILL       N/A    102  63  27 NW5         N/A  HX 104
ATHENS           N/A    100  63  28 E3          N/A  HX 102
LAKE LIMESTONE   N/A    100  63  28 NE5         N/A  HX 102
MCGREGOR         N/A    100  61  27 E6          N/A  HX 101
TEMPLE           N/A    N/A N/A N/A SE5         N/A
$$

SUPPLEMENTAL OBSERVATIONS (WEST)

CITY           SKY/WX    TMP DP  RH WIND       PRES   REMARKS
MILLERS CREEK    N/A    100  61  27 S6          N/A  HX 101
POSSUM KINGDOM   N/A     97  64  34 N2          N/A  HX  99
LBJ GRASSLAND    N/A    100  63  28 SE5         N/A  HX 102
GRANBURY         N/A    100  59  25 SE7         N/A  HX 100
COMANCHE         N/A     97  64  34 N5G13       N/A  HX  99
HAMBY            N/A     97  61  30 S2          N/A  HX  97
IVIE RESERVOIR   N/A     97  59  28 NE10        N/A  HX  96
COLORADO BEND    N/A     99  57  25 NE5         N/A  HX  97
$$

SUPPLEMENTAL OBSERVATIONS (EAST)

CITY           SKY/WX    TMP DP  RH WIND       PRES   REMARKS
CLARKSVILLE      N/A    102  66  30 SW1         N/A  HX 107
TEXARKANA        N/A     99  70  39 E1          N/A  HX 105
CADDO LAKE       N/A    102  72  37 NE5         N/A  HX 112
GILMER           N/A    100  68  34 E6          N/A  HX 106
HENDERSON        N/A    100  66  32 N8          N/A  HX 104
LUFKIN           N/A    102  68  32 MISG        N/A  HX 108
N SABINE NF      N/A    102  72  37 MISG        N/A  HX 112
S SABINE NF      N/A    100  70  37 CALM        N/A  HX 107
$$

SUPPLEMENTAL OBSERVATIONS ARE A COLLECTION OF AUTOMATED INSTRUMENTS
THAT ARE MAINTAINED BY A VARIETY OF FEDERAL AND STATE AGENCIES.
CERTAIN ELEMENTS...SUCH AS HUMIDITY VALUES AND SUSTAINED WIND
SPEEDS...MAY BE APPROXIMATED.




USA.gov is the U.S. government's official web portal to all federal, state and local government web resources and services.